Tracking 19817 objects as of 17-Aug-2019
HD Live streaming from Space Station
objects crossing your sky now

RADUGA 2

Track RADUGA 2 now!
RADUGA 2 is classified as:


NORAD ID: 9416
Int'l Code: 1976-092A
Perigee: 35,681.5 km
Apogee: 35,920.5 km
Inclination: 9.6 °
Period: 1,436.5 minutes
Semi major axis: 42172 km
RCS: 0.1428 m2 (medium)
Launch date: September 11, 1976
Source: Commonwealth of Independent States (former USSR) (CIS)
Launch site: TYURATAM MISSILE AND SPACE COMPLEX (TTMTR)
aabbcc
Your satellite tracking list
Your tracking list is empty




NASA's NSSDC Master Catalog

Two Line Element Set (TLE):
1  9416U 76092A   19228.76587069 -.00000069 +00000-0 +00000-0 0  9990
2  9416 009.6004 304.2136 0028334 326.2585 042.7574 01.00245787104313
Source of the keplerian elements: AFSPC